Showing default

LEMUR-2 PEGGY-2004, 68479

Orbit data source: Space-Track

LEMUR-2 PEGGY-2004, 68479 is a payload satellite owned by Spire (LU) in SSO that was launched on Mon, 30 Mar 2026 UTC via an FALCON 9 launch vehicle from the Air Force Western Test Range (AFWTR). Payload-class satellites include a variety of spacecraft equipped with specific instruments for various scientific and technological missions. These include communications satellites like Starlink; space stations such as the ISS; scientific satellites like the Hubble; Earth observation satellites from companies like Planet Labs, Umbra, and HawkEye 360; GPS; miniature CubeSats for education and research; and military/defense satellites.

Loading next visibility...
Identifier
68479, 2026-067BR
Orbit
SSO
Country
Flag of LULU / LUXE
Related business
Manufacturer
Spire/Glasgow
Mission
Operational spacecraft
Bus & Motor
CUBESAT 3U, Unknown motor
Mass
7.6 kg wet, 7.6 kg dry
Launch date (UTC)
2026-03-30 (3 months ago)
Launch vehicle
FALCON 9
Launch site
Air Force Western Test Range (AFWTR)
Object type
Payload
Rocket body
Debris
Shape & HBR
Unknown shape, 0.3 m
Radar Cross Section
Medium (>0.1 m² and <1 m²)

Expand to show TLE details & history
Last TLE update: 2 days ago

TLE from 2 days ago
0 LEMUR-2 PEGGY-2004
1 68479U 26067BR  26171.43689120  .00005525  00000-0  53982-3 0  9992
2 68479  97.7550 129.6668 0001007 116.9085 243.2237 14.92771517 12218
Epoch: 2026-06-20T10:29Z
TLE epoch observation values (Epoch: 2026-06-20T10:29:07.399Z)
Latitude
-0.00007°
Longitude
63.73445°
Altitude
592.658 km
Speed
7.563 km/s
True Right ascension
08h 38m 40s
True Declination
0° 00' 00"
Sunlit
Object was in daylight at epoch
Visualization orbit readout
Latitude
Unknown
Longitude
Unknown
Altitude
Unknown
Speed
Unknown
Apparent Right ascension
Unknown
Apparent Declination
Unknown
Sunlit
N/A
Visualization observer readout
Local Sidereal Time
10:53:59
Azimuth
Unknown
Elevation
Unknown
Doppler factor
Unknown
Orbital elements
Apogee altitude
587.017 km
Perigee altitude
585.614 km
Semi-major axis
6,964.453 km
Eccentricity
0.0001
Inclination
97.755°
RAAN
129.6668°
Arg. of periapsis
116.9085°
True anomaly
243.2134°
Mean anomaly
243.2237°
Eccentric anomaly
243.21855°
Mean motion
3.73433 °/min
Orbital period
96.4 mins
BSTAR
0.00053982
Loading maneuver chart data...
Computing Atmospheric mass density...
Loading historical data...
Loading historical data...
Loading historical data...
Loading historical data...
Loading historical data...
Loading historical data...
Loading historical data...

Documentation

Showing up to 5 results
|